SCP
0 0 0 0 -0 -0 0 0 0 0 0 -0 -0 0 0 0 -0 0 0 -0 -0 -0 -0 -0 -0 -0 -0 -0 -0 0 0 0 0 0 0 0 0 0
0 0 0 0 -0 -0 -0 -0 -0 -0 -0 0 0 0 0 0 0 0 0 0 -0 -0 0 0 0 0 0 0 0 0 0 0 0 0 0 0 0 0
0 0 -0 0 -0 0 -0 -0 -0 -0 -0 0 0 0 0 0 0 0 0 0 0 0 0 0 0 0 0 0 0 0 0 0 0 0 0 0 0 0
-0 0 -0 -0 -0 0 0 -0 -0 0 0 0 0 0 0 0 0 0 0 0 0 0 0 0 0 0 0 0 0 0 0 0 0 0 0 0 0 0
-0 -0 -0 -0 -0 0 0 0 0 0 0 0 0 0 0 0 0 0 0 0 0 0 0 0 0 0 0 0 0 0 0 0 0 0 0 0 0 0
0 0 -0 -0 -0 0 0 0 0 0 0 0 0 0 0 0 0 0 0 0 0 0 0 0 0 0 0 0 0 0 0 0 0 0 0 0 0 0
0 0 0 0 0 0 0 0 0 0 0 0 0 0 0 0 0 0 0 0 0 0 0 0 0 0 0 0 0 0 0 0 0 0 0 0 0 0
0 0 0 0 0 0 0 0 0 0 0 0 0 0 0 0 0 0 0 0 0 0 0 0 0 0 0 0 0 0 0 0 0 0 0 0 0 0
0 0 0 0 0 0 0 0 0 0 0 0 0 0 0 0 0 0 0 0 0 0 0 0 0 0 0 0 0 0 0 0 0 0 0 0 0 0
0 0 0 0 0 0 0 0 0 0 0 0 0 0 0 0 0 0 0 0 0 0 0 0 0 0 0 0 0 0 0 0 0 0 0 0 0 0
0 0 0 0 0 0 0 0 0 0 0 0 0 0 0 0 0 0 0 0 0 0 0 0 0 0 0 0 0 0 0 0 0 0 -0 -0 0 0
0 0 0 0 0 0 0 0 0 0 0 0 0 0 0 0 0 0 0 0 0 0 0 0 0 0 0 0 0 0 0 0 0 0 0 0 0 0
0 0 0 0 0 0 0 0 0 0 0 0 0 0 0 0 0 0 0 0 0 0 0 0 0 0 0 0 0 0 0 0 0 0 0 0 0 0
0 0 0 0 0 0 0 0 0 0 0 0 0 0 0 0 0 0 0 0 0 0 0 0 0 0 0 0 0 0 0 0 0 0 0 0 0 0
0 0 0 0 0 0 0 0 0 0 0 0 0 0 0 0 0 0 0 0 0 0 0 0 0 0 0 0 0 0 0 0 0 0 0 0 0 0
0 0 0 0 0 0 0 0 0 0 0 0 0 0 0 0 0 0 0 0 0 0 0 0 0 0 0 0 0 0 0 0 0 0 0 0 0 0
0 0 0 0 0 0 0 0 0 0 0 0 0 0 0 0 0 0 0 0 0 0 0 0 0 0 0 0 0 0 0 0 0 0 0 0 0 0
0 0 0 0 0 0 0 0 0 0 0 0 0 0 0 0 0 0 0 0 0 0 0 0 0 0 0 0 0 0 0 0 0 0 0 0 0 0
0 0 0 0 0 0 0 0 0 0 0 0 0 0 0 0 0 0 0 0 0 0 0 0 0 0 0 0 0 0 0 0 0 0 0 0 0 0
0 0 0 0 0 0 0 0 0 0 0 0 0 0 0 0 0 0 0 0 0 0 0 0 0 0 0 0 0 0 0 0 0 0 0 0 0 0
0 0 0 0 0 0 0 0 0 0 0 0 0 0 0 0 0 0 0 0 0 0 0 0 0 0 0 0 0 0 0 0 0 0 0 0 0 0
0 0 0 0 0 0 0 0 0 0 0 0 0 0 0 0 0 0 0 0 0 0 0 0 0 0 0 0 0 0 0 0 0 0 0 0 0 0
0 0 0 0 0 0 0 -0 0 0 0 0 0 0 0 0 0 0 0 0 0 0 0 0 0 0 0 0 0 0 0 0 0 0 0 0 0 0
Wind_Speed_500mb
16 15 14 15 16 17 18 16 13 20 21 15 8 10 18 22 25 27 26 24 22 21 19 22 21 16 12 9 9 9 10 11 12 13 13 13 13 14
16 18 21 22 23 23 23 23 20 17 20 15 15 22 24 28 28 26 27 25 24 22 21 17 16 14 11 11 12 14 15 15 15 15 15 15 15 15
21 20 20 24 24 22 23 23 22 17 18 17 23 24 27 27 25 23 25 26 25 24 22 17 14 11 9 7 9 11 14 16 16 15 15 15 15 14
19 23 24 28 29 30 27 26 30 25 21 23 21 24 24 24 25 25 24 24 26 27 28 25 21 17 16 16 15 16 19 21 21 17 14 14 14 15
27 30 30 34 30 30 32 34 31 26 26 27 23 26 24 24 25 25 24 25 25 26 26 28 26 24 23 23 23 23 23 23 22 20 17 16 16 16
35 36 38 37 31 28 31 32 32 30 30 29 29 29 29 27 25 23 22 24 26 26 27 23 24 28 31 31 33 30 27 23 22 17 8 11 15 17
42 40 37 34 33 34 33 34 36 33 31 30 28 27 27 22 18 21 26 25 30 27 27 27 29 33 35 37 37 34 29 26 22 13 4 6 12 16
43 39 36 35 35 34 29 31 30 30 32 31 22 20 22 22 23 20 19 22 20 27 24 29 30 34 38 40 40 39 34 29 13 10 12 11 10 12
41 42 39 38 34 32 30 26 26 27 26 26 24 24 22 21 21 20 20 19 23 31 30 31 30 31 37 42 46 44 38 22 16 21 16 5 9 7
47 44 34 27 28 30 29 24 25 29 25 22 22 23 23 23 22 24 26 27 25 25 24 21 27 27 31 35 38 40 30 21 25 12 9 6 3 6
46 41 27 22 25 29 32 42 42 32 29 26 24 22 22 22 24 23 20 18 15 17 16 14 17 22 24 24 27 30 27 24 21 15 8 6 4 4
37 39 40 39 41 49 56 44 31 25 23 19 15 16 15 12 12 12 11 16 15 13 12 15 16 17 15 16 17 18 16 16 13 9 8 7 4 6
38 41 44 35 29 28 28 28 27 23 17 17 13 12 12 10 14 16 16 14 13 13 16 15 12 12 10 19 20 17 14 16 14 9 8 7 8 11
19 16 16 20 26 29 25 21 19 11 10 14 12 11 9 10 12 13 14 13 12 12 13 14 12 12 11 14 14 14 14 16 16 12 12 14 16 19
18 19 18 13 7 7 7 5 5 7 9 9 9 8 5 6 9 10 10 11 10 10 11 14 15 16 12 10 12 10 7 10 13 13 14 13 14 21
17 16 14 14 14 12 10 7 8 10 10 7 4 2 5 6 7 8 8 9 6 10 10 12 15 14 9 11 8 5 3 3 5 9 15 20 25 24
18 17 18 17 15 15 14 13 13 13 10 9 7 6 6 8 8 10 10 10 5 3 7 14 14 13 12 11 8 5 3 4 10 14 16 15 16 15
19 17 18 18 17 16 16 14 12 10 5 3 4 5 6 8 9 11 10 7 3 3 5 10 12 11 13 19 14 7 8 7 9 14 15 12 11 12
20 19 16 16 16 14 12 9 6 5 4 4 5 6 7 9 9 8 8 6 5 5 10 12 13 13 14 13 14 13 6 9 10 9 9 9 8 9
22 23 22 20 19 16 13 11 8 8 6 5 6 7 8 9 9 9 9 7 7 8 9 12 12 13 11 10 9 13 12 5 8 7 7 9 8 10
25 25 23 22 21 19 18 16 12 9 8 8 8 11 13 12 12 11 10 11 9 7 7 8 12 11 9 10 8 9 8 10 8 5 11 12 13 13
24 25 28 27 25 23 23 19 15 13 12 9 8 11 14 16 14 12 10 8 9 9 8 8 11 9 6 5 8 8 8 9 16 16 17 13 14 15
27 28 23 19 17 18 18 16 15 15 13 11 9 8 13 12 13 12 9 8 6 7 9 10 10 9 8 8 7 10 12 13 18 5 5 8 10 12
Wind_Direction_500mb
276 279 281 293 300 297 297 297 300 307 311 315 327 278 292 308 312 313 310 314 321 322 322 337 352 4 14 24 27 22 9 357 348 342 342 341 339 338
278 279 280 285 289 291 286 282 286 285 297 303 304 297 294 297 304 314 314 306 310 310 307 314 332 348 11 27 34 25 14 2 353 345 341 342 342 337
276 280 284 290 284 281 288 278 278 276 283 295 314 311 306 296 294 302 306 301 301 305 301 288 292 296 302 318 333 338 344 347 346 345 341 336 331 327
274 277 280 294 283 272 272 281 282 279 273 288 298 312 313 310 300 302 299 297 295 297 294 284 279 276 280 285 298 317 328 336 342 346 345 339 336 335
278 280 283 288 285 270 273 275 276 280 275 279 292 297 297 301 302 300 299 301 299 296 296 284 261 264 272 276 284 294 310 321 325 333 341 351 354 353
275 284 284 280 277 278 271 271 276 278 283 289 296 290 292 292 295 296 304 301 298 296 295 280 268 268 275 274 277 283 294 297 296 294 324 2 3 360
279 286 284 280 274 276 281 283 276 278 287 291 295 295 303 291 288 285 293 287 294 292 291 282 276 271 271 273 276 277 276 281 286 288 309 22 19 356
278 279 275 275 269 274 278 286 282 283 290 292 295 289 290 289 292 294 296 301 294 298 291 283 279 272 269 269 271 268 257 249 240 234 306 311 48 6
273 275 276 279 278 270 281 285 288 290 290 291 289 283 289 294 297 299 297 297 288 294 296 294 295 278 268 266 266 265 264 252 244 293 293 312 63 0
271 273 274 266 270 259 251 267 297 295 291 294 294 286 284 289 293 296 296 296 292 292 293 285 289 284 283 277 290 291 278 268 268 259 309 117 95 357
267 263 260 258 238 239 259 281 287 271 279 281 281 284 290 298 304 310 319 319 306 319 320 306 312 317 312 307 303 303 281 270 257 270 217 188 217 293
256 254 257 270 267 274 267 271 260 261 266 272 273 281 292 309 329 338 346 336 332 326 320 318 317 322 328 321 335 316 285 259 260 266 206 184 216 270
253 256 263 257 252 255 251 254 251 249 248 258 262 268 283 292 312 318 321 322 324 316 314 323 324 325 316 306 314 309 292 272 280 249 219 249 283 286
242 240 244 255 256 259 254 259 256 247 240 235 230 248 265 292 310 317 321 335 342 342 341 344 340 329 310 302 300 302 293 267 253 233 243 269 286 298
210 221 231 227 206 183 186 204 202 182 198 214 225 239 278 317 334 339 345 344 343 347 343 341 344 340 336 319 298 297 275 265 251 240 254 267 276 298
178 166 157 157 154 148 159 165 174 161 168 170 153 82 13 5 352 355 2 352 352 334 333 341 349 352 7 355 357 303 279 284 246 245 264 283 290 285
128 141 134 129 127 130 130 138 132 118 111 101 78 35 4 355 348 344 341 345 5 347 346 341 352 1 359 357 346 333 288 266 268 273 288 293 296 287
129 139 135 138 135 131 127 118 108 103 84 35 9 10 1 351 348 347 349 357 359 339 335 329 345 348 335 326 320 325 315 297 304 311 319 315 305 313
129 127 129 136 136 135 128 115 97 85 70 54 34 17 357 342 338 338 350 7 353 337 314 313 330 336 329 326 319 317 313 311 324 332 338 335 319 313
146 142 135 130 128 120 107 94 79 63 58 44 29 359 351 344 335 335 335 343 354 347 339 341 347 351 352 334 325 317 330 349 333 327 332 339 326 319
134 126 125 122 111 99 89 80 71 66 53 44 32 17 9 3 1 3 357 345 350 357 354 348 344 352 19 21 5 2 10 46 38 1 322 325 317 313
140 131 125 116 107 96 85 79 70 60 51 40 31 24 20 24 25 32 34 34 26 19 20 17 12 13 9 6 349 339 339 332 331 317 299 282 285 300
142 142 135 131 124 111 98 91 75 52 36 23 14 14 21 25 32 39 42 38 27 17 3 356 350 348 352 350 331 331 313 308 314 317 333 286 244 229
Wind_Speed_850mb
16 15 14 15 16 17 18 16 13 20 21 15 8 10 18 22 25 27 26 24 22 21 19 22 21 16 12 9 9 9 10 11 12 13 13 13 13 14
16 18 21 22 23 23 23 23 20 17 20 15 15 22 24 28 28 26 27 25 24 22 21 17 16 14 11 11 12 14 15 15 15 15 15 15 15 15
21 20 20 24 24 22 23 23 22 17 18 17 23 24 27 27 25 23 25 26 25 24 22 17 14 11 9 7 9 11 14 16 16 15 15 15 15 14
19 23 24 28 29 30 27 26 30 25 21 23 21 24 24 24 25 25 24 24 26 27 28 25 21 17 16 16 15 16 19 21 21 17 14 14 14 15
27 30 30 34 30 30 32 34 31 26 26 27 23 26 24 24 25 25 24 25 25 26 26 28 26 24 23 23 23 23 23 23 22 20 17 16 16 16
35 36 38 37 31 28 31 32 32 30 30 29 29 29 29 27 25 23 22 24 26 26 27 23 24 28 31 31 33 30 27 23 22 17 8 11 15 17
42 40 37 34 33 34 33 34 36 33 31 30 28 27 27 22 18 21 26 25 30 27 27 27 29 33 35 37 37 34 29 26 22 13 4 6 12 16
43 39 36 35 35 34 29 31 30 30 32 31 22 20 22 22 23 20 19 22 20 27 24 29 30 34 38 40 40 39 34 29 13 10 12 11 10 12
41 42 39 38 34 32 30 26 26 27 26 26 24 24 22 21 21 20 20 19 23 31 30 31 30 31 37 42 46 44 38 22 16 21 16 5 9 7
47 44 34 27 28 30 29 24 25 29 25 22 22 23 23 23 22 24 26 27 25 25 24 21 27 27 31 35 38 40 30 21 25 12 9 6 3 6
46 41 27 22 25 29 32 42 42 32 29 26 24 22 22 22 24 23 20 18 15 17 16 14 17 22 24 24 27 30 27 24 21 15 8 6 4 4
37 39 40 39 41 49 56 44 31 25 23 19 15 16 15 12 12 12 11 16 15 13 12 15 16 17 15 16 17 18 16 16 13 9 8 7 4 6
38 41 44 35 29 28 28 28 27 23 17 17 13 12 12 10 14 16 16 14 13 13 16 15 12 12 10 19 20 17 14 16 14 9 8 7 8 11
19 16 16 20 26 29 25 21 19 11 10 14 12 11 9 10 12 13 14 13 12 12 13 14 12 12 11 14 14 14 14 16 16 12 12 14 16 19
18 19 18 13 7 7 7 5 5 7 9 9 9 8 5 6 9 10 10 11 10 10 11 14 15 16 12 10 12 10 7 10 13 13 14 13 14 21
17 16 14 14 14 12 10 7 8 10 10 7 4 2 5 6 7 8 8 9 6 10 10 12 15 14 9 11 8 5 3 3 5 9 15 20 25 24
18 17 18 17 15 15 14 13 13 13 10 9 7 6 6 8 8 10 10 10 5 3 7 14 14 13 12 11 8 5 3 4 10 14 16 15 16 15
19 17 18 18 17 16 16 14 12 10 5 3 4 5 6 8 9 11 10 7 3 3 5 10 12 11 13 19 14 7 8 7 9 14 15 12 11 12
20 19 16 16 16 14 12 9 6 5 4 4 5 6 7 9 9 8 8 6 5 5 10 12 13 13 14 13 14 13 6 9 10 9 9 9 8 9
22 23 22 20 19 16 13 11 8 8 6 5 6 7 8 9 9 9 9 7 7 8 9 12 12 13 11 10 9 13 12 5 8 7 7 9 8 10
25 25 23 22 21 19 18 16 12 9 8 8 8 11 13 12 12 11 10 11 9 7 7 8 12 11 9 10 8 9 8 10 8 5 11 12 13 13
24 25 28 27 25 23 23 19 15 13 12 9 8 11 14 16 14 12 10 8 9 9 8 8 11 9 6 5 8 8 8 9 16 16 17 13 14 15
27 28 23 19 17 18 18 16 15 15 13 11 9 8 13 12 13 12 9 8 6 7 9 10 10 9 8 8 7 10 12 13 18 5 5 8 10 12
Wind_Direction_850mb
276 279 281 293 300 297 297 297 300 307 311 315 327 278 292 308 312 313 310 314 321 322 322 337 352 4 14 24 27 22 9 357 348 342 342 341 339 338
278 279 280 285 289 291 286 282 286 285 297 303 304 297 294 297 304 314 314 306 310 310 307 314 332 348 11 27 34 25 14 2 353 345 341 342 342 337
276 280 284 290 284 281 288 278 278 276 283 295 314 311 306 296 294 302 306 301 301 305 301 288 292 296 302 318 333 338 344 347 346 345 341 336 331 327
274 277 280 294 283 272 272 281 282 279 273 288 298 312 313 310 300 302 299 297 295 297 294 284 279 276 280 285 298 317 328 336 342 346 345 339 336 335
278 280 283 288 285 270 273 275 276 280 275 279 292 297 297 301 302 300 299 301 299 296 296 284 261 264 272 276 284 294 310 321 325 333 341 351 354 353
275 284 284 280 277 278 271 271 276 278 283 289 296 290 292 292 295 296 304 301 298 296 295 280 268 268 275 274 277 283 294 297 296 294 324 2 3 360
279 286 284 280 274 276 281 283 276 278 287 291 295 295 303 291 288 285 293 287 294 292 291 282 276 271 271 273 276 277 276 281 286 288 309 22 19 356
278 279 275 275 269 274 278 286 282 283 290 292 295 289 290 289 292 294 296 301 294 298 291 283 279 272 269 269 271 268 257 249 240 234 306 311 48 6
273 275 276 279 278 270 281 285 288 290 290 291 289 283 289 294 297 299 297 297 288 294 296 294 295 278 268 266 266 265 264 252 244 293 293 312 63 0
271 273 274 266 270 259 251 267 297 295 291 294 294 286 284 289 293 296 296 296 292 292 293 285 289 284 283 277 290 291 278 268 268 259 309 117 95 357
267 263 260 258 238 239 259 281 287 271 279 281 281 284 290 298 304 310 319 319 306 319 320 306 312 317 312 307 303 303 281 270 257 270 217 188 217 293
256 254 257 270 267 274 267 271 260 261 266 272 273 281 292 309 329 338 346 336 332 326 320 318 317 322 328 321 335 316 285 259 260 266 206 184 216 270
253 256 263 257 252 255 251 254 251 249 248 258 262 268 283 292 312 318 321 322 324 316 314 323 324 325 316 306 314 309 292 272 280 249 219 249 283 286
242 240 244 255 256 259 254 259 256 247 240 235 230 248 265 292 310 317 321 335 342 342 341 344 340 329 310 302 300 302 293 267 253 233 243 269 286 298
210 221 231 227 206 183 186 204 202 182 198 214 225 239 278 317 334 339 345 344 343 347 343 341 344 340 336 319 298 297 275 265 251 240 254 267 276 298
178 166 157 157 154 148 159 165 174 161 168 170 153 82 13 5 352 355 2 352 352 334 333 341 349 352 7 355 357 303 279 284 246 245 264 283 290 285
128 141 134 129 127 130 130 138 132 118 111 101 78 35 4 355 348 344 341 345 5 347 346 341 352 1 359 357 346 333 288 266 268 273 288 293 296 287
129 139 135 138 135 131 127 118 108 103 84 35 9 10 1 351 348 347 349 357 359 339 335 329 345 348 335 326 320 325 315 297 304 311 319 315 305 313
129 127 129 136 136 135 128 115 97 85 70 54 34 17 357 342 338 338 350 7 353 337 314 313 330 336 329 326 319 317 313 311 324 332 338 335 319 313
146 142 135 130 128 120 107 94 79 63 58 44 29 359 351 344 335 335 335 343 354 347 339 341 347 351 352 334 325 317 330 349 333 327 332 339 326 319
134 126 125 122 111 99 89 80 71 66 53 44 32 17 9 3 1 3 357 345 350 357 354 348 344 352 19 21 5 2 10 46 38 1 322 325 317 313
140 131 125 116 107 96 85 79 70 60 51 40 31 24 20 24 25 32 34 34 26 19 20 17 12 13 9 6 349 339 339 332 331 317 299 282 285 300
142 142 135 131 124 111 98 91 75 52 36 23 14 14 21 25 32 39 42 38 27 17 3 356 350 348 352 350 331 331 313 308 314 317 333 286 244 229